Weather History for Reggio Calabria, Italy

Change the Weather History Date:

Wednesday, November 28, 2012

  Actual Average Record
Temperature  
Mean Temperature 66 °F -  
Max Temperature 71 °F 59 °F 73 °F (2010)
Min Temperature 62 °F 50 °F 46 °F (2013)
Cooling Degree Days 2    
Growing Degree Days 16 (Base 50)    
Moisture  
Dew Point 58 °F    
Average Humidity 71    
Maximum Humidity 83    
Minimum Humidity 59    
Precipitation  
Precipitation 0.00 in - - ()
Sea Level Pressure  
Sea Level Pressure 29.60 in    
Wind  
Wind Speed 22 mph ()    
Max Wind Speed 33 mph    
Max Gust Speed 51 mph    
Visibility 6.0 miles    
Events Rain , Thunderstorm    
Averages and records for this station are not official NWS values.
T = Trace of Precipitation, MM = Missing Value Source: Averaged Metar Reports

Daily Weather History Graph

Daily Weather History Graph

Search for Another Location

Airport:

Trip Planner

Search our weather history database for the weather conditions in past years. The results will help you decide how hot, cold, wet, or windy it might be!

Date:

Astronomy

Nov. 28, 2012 Rise Set
Actual Time 6:52 AM CET 4:38 PM CET
Civil Twilight 6:23 AM CET 5:07 PM CET
Nautical Twilight 5:50 AM CET 5:40 PM CET
Astronomical Twilight 5:18 AM CET 6:11 PM CET
Moon 4:40 PM CET 6:34 AM CET
Length of Visible Light 10h 44m
Length of Day
9h 46m
Full, 100% of the Moon is Illuminated
Nov 28
Full
Nov 28
Full
Dec 6
Last Quarter
Dec 13
New
Dec 20
First Quarter

Hourly Weather History & Observations

Time (CET) Temp. Dew Point Humidity Pressure Visibility Wind Dir Wind Speed Gust Speed Precip Events Conditions
5:50 AM 69.8 °F 60.8 °F 73% 29.65 in 6.2 mi SE 29.9 mph 49.5 mph N/A   Mostly Cloudy
6:27 AM 69.8 °F 60.8 °F 73% 29.65 in 6.2 mi SSE 32.2 mph 50.6 mph N/A Rain Light Rain
6:50 AM 69.8 °F 60.8 °F 73% 29.62 in 6.2 mi SE 33.4 mph 48.3 mph N/A Rain Light Rain
7:50 AM 69.8 °F 62.6 °F 78% 29.65 in 6.2 mi SSE 33.4 mph 48.3 mph N/A   Mostly Cloudy
8:50 AM 69.8 °F 62.6 °F 78% 29.65 in 6.2 mi SSE 26.5 mph 47.2 mph N/A   Mostly Cloudy
9:50 AM 71.6 °F 62.6 °F 73% 29.62 in 6.2 mi SSE 23.0 mph 40.3 mph N/A   Scattered Clouds
10:50 AM 71.6 °F 62.6 °F 73% 29.62 in 6.2 mi SSE 25.3 mph 41.4 mph N/A   Scattered Clouds
11:50 AM 71.6 °F 62.6 °F 73% 29.59 in 6.2 mi SSE 23.0 mph 36.8 mph N/A   Scattered Clouds
12:50 PM 69.8 °F 62.6 °F 78% 29.56 in 6.2 mi SSE 23.0 mph 36.8 mph N/A   Scattered Clouds
1:50 PM 69.8 °F 62.6 °F 78% 29.53 in 6.2 mi SSE 21.9 mph 35.7 mph N/A   Scattered Clouds
2:50 PM 68.0 °F 62.6 °F 83% 29.53 in 3.1 mi SSE 18.4 mph 36.8 mph N/A Rain , Thunderstorm Thunderstorms and Rain
3:50 PM 68.0 °F 62.6 °F 83% 29.53 in 6.2 mi South 15.0 mph - N/A   Mostly Cloudy
4:50 PM 68.0 °F 55.4 °F 64% 29.53 in 6.2 mi South 20.7 mph 32.2 mph N/A   Mostly Cloudy
5:50 PM 68.0 °F 55.4 °F 64% 29.56 in 6.2 mi South 19.6 mph 32.2 mph N/A   Mostly Cloudy
6:50 PM 68.0 °F 55.4 °F 64% 29.56 in 6.2 mi South 18.4 mph 33.4 mph N/A   Mostly Cloudy
7:50 PM 66.2 °F 55.4 °F 68% 29.59 in 6.2 mi South 25.3 mph - N/A   Mostly Cloudy
8:50 PM 64.4 °F 53.6 °F 68% 29.62 in 6.2 mi SSW 23.0 mph - N/A   Mostly Cloudy
9:50 PM 62.6 °F 50.0 °F 63% 29.62 in 6.2 mi South 15.0 mph - N/A   Mostly Cloudy
10:50 PM 62.6 °F 48.2 °F 59% 29.62 in 6.2 mi South 18.4 mph 34.5 mph N/A   Mostly Cloudy
11:50 PM 62.6 °F 48.2 °F 59% 29.62 in 6.2 mi South 21.9 mph - N/A   Scattered Clouds